Overview Statistics Trail Chart Weather Telemetry Raw packets
 

This is the latest recevied weather packets stored in our database for station/object VU2EXP-13. If no packets are shown the sender has not sent any weather packets the latest 10 day(s).

<< 13 14 15 16 17 18 19 >>
Time Temp. Humidity Pressure Rain* Wind** Luminosity Snow
1788000476 32.78° C 51% 989.4 hPa - - - -
1787999571 32.78° C 50% 989.5 hPa - - - -
1787998671 33.89° C 49% 989.4 hPa - - - -
1787997770 34.44° C 48% 989.5 hPa - - - -
1787996870 33.89° C 49% 989.7 hPa - - - -
1787995974 34.44° C 47% 989.8 hPa - - - -
1787995070 34.44° C 47% 989.9 hPa - - - -
1787994170 36.11° C 45% 990.1 hPa - - - -
1787993269 35° C 47% 990.2 hPa - - - -
1787992369 33.89° C 48% 990.5 hPa - - - -
1787991469 35° C 47% 990.5 hPa - - - -
1787990569 33.33° C 51% 990.8 hPa - - - -
1787989670 33.33° C 50% 991 hPa - - - -
1787988769 33.33° C 52% 991.3 hPa - - - -
1787987868 32.22° C 54% 991.6 hPa - - - -
1787986969 32.22° C 54% 991.7 hPa - - - -
1787986070 32.78° C 52% 991.7 hPa - - - -
1787984493 32.78° C 53% 992 hPa - - - -
1787983593 31.11° C 55% 992.1 hPa - - - -
1787982693 32.22° C 53% 992.2 hPa - - - -
1787981794 31.11° C 54% 992.2 hPa - - - -
1787980904 31.67° C 54% 987.1 hPa - - - -
1787980291 31.11° C 55% 992.2 hPa - - - -
1787979391 31.11° C 56% 992.1 hPa - - - -
1787978491 30.56° C 57% 992.2 hPa - - - -

* Rain since midnight (hover to see other rain measurements)
** Current wind speed in m/s (hover to see current wind gust speed)